Location: Hackbridge
(51.3833°N, 0.1500°W)
Time: 08:28:50
(UTC+00:00)

FALCON 9 DEB - Pass Details

Date: 13 October 2019
Orbit: 430 x 445 km, 53.0° (Epoch: 17 November)

Event Time Altitude Azimuth Distance (km) Brightness Sun altitude
Rises 19:00:27 0° 274° (W) 2,417 8.6 -17.6°
Reaches altitude 10° 19:02:34 10° 278° (W) 1,551 7.2 -17.9°
Maximum altitude 19:06:02 65° 0° (N) 490 3.3 -18.5°
Enters shadow 19:06:40 52° 53° (NE) 558 3.3 -18.5°
